{"data":{"norad_id":53025,"intl_designator":"2022-076AR","name":"STARLINK-4218","alt_names":[],"object_type":"PAYLOAD","status":"ACTIVE","operator":null,"country":"US","launch_date":"2022-07-07","launch_site_code":"AFETR","launch_vehicle":null,"mission":null,"orbit_class":"UNKNOWN","rcs_meters":null,"size_class":null,"mass_kg":null,"dimensions":null,"purposes":["comms"],"wikipedia_slug":null,"has_3d_model":false,"image_url":null,"decayed_at":null,"tle_current":{"epoch":"2026-05-25T03:56:50.047296Z","epoch_age_seconds":54826,"freshness":"FRESH","line1":"1 53025U 22076AR  26145.16446814  .00000159  00000+0  28089-4 0  9999","line2":"2 53025  53.2133 100.8105 0001304  72.5201 287.5933 15.08837332214536","mean_motion":15.08837332,"eccentricity":0.0001304,"inclination_deg":53.2133,"raan_deg":100.8105,"arg_perigee_deg":72.5201,"mean_anomaly_deg":287.5933,"bstar":2.8089e-5,"rev_number":21453,"period_min":95.43772343512,"perigee_km":538.84945131864,"apogee_km":540.65363665091,"semimajor_km":6917.8885439848,"source":"CELESTRAK","updated_at":"2026-05-25T13:38:17.281989Z"}}}